FW8756 Weather Reports


Display with metric or nautical units.
time (UTC)temp
F
wind
direction
speed
MPH
gust
MPH
rain 1hr
in
rain 24hr
in
rain mn
in
humidity
%
barometer
mb
20260503203315 80 189 0.0 0.0 0.00 0.00 0.00 42 1018.3
20260503202812 81 201 1.0 2.0 0.00 0.00 0.00 39 1018.6
20260503202310 80 193 0.0 1.0 0.00 0.00 0.00 41 1018.7
20260503201808 81 161 0.0 0.0 0.00 0.00 0.00 41 1018.7
20260503201304 84 225 1.0 1.0 0.00 0.00 0.00 36 1018.8
20260503200802 81 165 0.0 0.0 0.00 0.00 0.00 39 1019.0
20260503200257 82 162 0.0 0.0 0.00 0.00 0.00 40 1019.0
20260503195755 81 182 1.0 2.0 0.00 0.00 0.00 39 1019.2
20260503195251 83 185 0.0 0.0 0.00 0.00 0.00 41 1018.9
20260503194749 81 148 0.0 0.0 0.00 0.00 0.00 42 1019.2
20260503194245 81 222 0.0 0.0 0.00 0.00 0.00 43 1019.4
20260503193741 81 195 1.0 2.0 0.00 0.00 0.00 41 1019.4
20260503193237 82 247 5.0 6.0 0.00 0.00 0.00 38 1019.4
20260503192733 82 254 5.0 7.0 0.00 0.00 0.00 39 1019.4
20260503192228 84 174 2.0 2.0 0.00 0.00 0.00 40 1019.7
20260503191725 82 253 3.0 3.0 0.00 0.00 0.00 41 1019.8
20260503191222 79 151 0.0 0.0 0.00 0.00 0.00 42 1019.9
20260503190719 82 149 0.0 0.0 0.00 0.00 0.00 41 1020.2
20260503190216 80 299 7.0 8.0 0.00 0.00 0.00 38 1019.9
20260503185713 81 184 0.0 0.0 0.00 0.00 0.00 41 1020.1
20260503185208 80 253 2.0 3.0 0.00 0.00 0.00 41 1020.1
20260503184703 82 161 0.0 0.0 0.00 0.00 0.00 40 1020.0
20260503184200 80 118 0.0 0.0 0.00 0.00 0.00 42 1020.3
20260503183656 81 209 1.0 2.0 0.00 0.00 0.00 41 1020.3
20260503183154 81 132 4.0 6.0 0.00 0.00 0.00 43 1020.4
20260503182652 80 185 1.0 2.0 0.00 0.00 0.00 40 1020.5
20260503182150 81 169 0.0 0.0 0.00 0.00 0.00 41 1020.6
20260503181646 81 163 3.0 3.0 0.00 0.00 0.00 43 1020.5
20260503181143 80 169 0.0 0.0 0.00 0.00 0.00 44 1020.7
20260503180640 77 140 0.0 0.0 0.00 0.00 0.00 48 1021.1
20260503180138 79 122 3.0 3.0 0.00 0.00 0.00 44 1021.1
20260503175635 78 178 0.0 0.0 0.00 0.00 0.00 46 1021.0
20260503175132 77 165 0.0 0.0 0.00 0.00 0.00 46 1021.1
20260503174628 79 187 1.0 1.0 0.00 0.00 0.00 45 1021.2
20260503174126 79 144 0.0 0.0 0.00 0.00 0.00 46 1021.5
20260503173621 81 144 0.0 0.0 0.00 0.00 0.00 45 1021.4
20260503173117 80 158 0.0 1.0 0.00 0.00 0.00 45 1021.5
20260503172614 80 190 0.0 0.0 0.00 0.00 0.00 45 1021.6
20260503172112 81 180 2.0 3.0 0.00 0.00 0.00 44 1021.7
20260503171609 81 186 1.0 2.0 0.00 0.00 0.00 45 1021.8
20260503171106 80 220 0.0 0.0 0.00 0.00 0.00 45 1021.6
20260503170602 80 193 1.0 2.0 0.00 0.00 0.00 46 1021.9
20260503150954 73 186 0.0 0.0 0.00 0.00 0.00 60 1022.0
20260503150451 73 174 1.0 1.0 0.00 0.00 0.00 61 1021.8
20260503131344 61 153 0.0 0.0 0.00 0.00 0.00 93 1021.4
20260503130841 60 153 0.0 0.0 0.00 0.00 0.00 93 1021.2
20260503130338 59 142 0.0 0.0 0.00 0.00 0.00 93 1021.0
20260503110732 55 146 0.0 0.0 0.00 0.00 0.00 94 1020.3
20260503110230 55 140 0.0 0.0 0.00 0.00 0.00 94 1020.1
20260503100156 56 149 0.0 0.0 0.00 0.00 0.00 93 1019.9
20260503090115 55 147 0.0 0.0 0.00 0.00 0.00 93 1019.7
20260503081550 56 146 0.0 0.0 0.00 0.00 0.00 93 1019.9
20260503081048 56 148 0.0 0.0 0.00 0.00 0.00 92 1019.5
20260503080544 56 144 0.0 0.0 0.00 0.00 0.00 92 1019.9
20260503072518 56 144 0.0 0.0 0.00 0.00 0.00 92 1019.9
20260503072015 57 150 0.0 0.0 0.00 0.00 0.00 92 1019.9
20260503071512 56 145 0.0 0.0 0.00 0.00 0.00 91 1020.1
20260503071008 57 141 0.0 0.0 0.00 0.00 0.00 91 1020.1
20260503070505 57 152 0.0 0.0 0.00 0.00 0.00 91 1020.1
20260503054929 58 153 0.0 0.0 0.00 0.00 0.00 89 1020.1
20260503054425 58 153 0.0 0.0 0.00 0.00 0.00 89 1020.3
20260503053923 58 148 0.0 0.0 0.00 0.00 0.00 89 1020.3
20260503053421 58 146 0.0 0.0 0.00 0.00 0.00 89 1020.1
20260503052916 58 145 0.0 0.0 0.00 0.00 0.00 89 1019.7
20260503052414 58 140 0.0 0.0 0.00 0.00 0.00 89 1019.9
20260503051910 58 140 0.0 0.0 0.00 0.00 0.00 88 1019.8
20260503051406 58 141 0.0 0.0 0.00 0.00 0.00 88 1019.9
20260503050904 59 153 0.0 0.0 0.00 0.00 0.00 88 1020.0
20260503050359 59 154 0.0 0.0 0.00 0.00 0.00 88 1019.9
20260503045857 59 147 0.0 0.0 0.00 0.00 0.00 87 1019.9
20260503045354 59 144 0.0 0.0 0.00 0.00 0.00 87 1019.9
20260503044851 59 148 0.0 0.0 0.00 0.00 0.00 87 1019.9
20260503044348 59 152 0.0 0.0 0.00 0.00 0.00 87 1019.7
20260503043845 59 153 0.0 0.0 0.00 0.00 0.00 86 1019.8
20260503043342 59 159 0.0 0.0 0.00 0.00 0.00 86 1019.8
20260503042838 59 152 0.0 0.0 0.00 0.00 0.00 86 1019.6
20260503042335 59 148 0.0 0.0 0.00 0.00 0.00 85 1019.5
20260503041831 60 150 0.0 0.0 0.00 0.00 0.00 85 1019.7
20260503041328 60 152 0.0 0.0 0.00 0.00 0.00 85 1019.7
20260503040826 60 153 0.0 0.0 0.00 0.00 0.00 85 1019.6
20260503040324 60 138 0.0 0.0 0.00 0.00 0.00 84 1019.7
20260503035820 60 153 0.0 0.0 0.00 0.00 0.00 84 1019.6
20260503035317 60 153 0.0 0.0 0.00 0.00 0.00 83 1019.8
20260503034815 60 151 0.0 0.0 0.00 0.00 0.00 83 1019.6
20260503034312 60 139 0.0 0.0 0.00 0.00 0.00 83 1019.3
20260503033809 60 147 0.0 0.0 0.00 0.00 0.00 83 1019.3
20260503033306 61 153 0.0 0.0 0.00 0.00 0.00 83 1019.4
20260503032804 61 152 0.0 0.0 0.00 0.00 0.00 82 1019.2
20260503032304 61 138 0.0 0.0 0.00 0.00 0.00 82 1019.4
20260503031800 61 152 0.0 0.0 0.00 0.00 0.00 81 1019.3
20260503031258 61 154 0.0 0.0 0.00 0.00 0.00 81 1019.2
20260503030754 62 136 0.0 0.0 0.00 0.00 0.00 81 1019.3
20260503030250 61 151 0.0 0.0 0.00 0.00 0.00 81 1019.2
20260503025747 61 150 0.0 0.0 0.00 0.00 0.00 81 1019.2
20260503025245 62 152 0.0 0.0 0.00 0.00 0.00 81 1019.2
20260503024741 62 149 0.0 0.0 0.00 0.00 0.00 80 1019.1
20260503024238 62 154 0.0 0.0 0.00 0.00 0.00 80 1019.1
20260503023735 62 151 0.0 0.0 0.00 0.00 0.00 80 1019.1
20260503023232 62 145 0.0 0.0 0.00 0.00 0.00 79 1019.1
20260503022728 62 139 0.0 0.0 0.00 0.00 0.00 79 1018.6
20260503022228 63 142 0.0 0.0 0.00 0.00 0.00 80 1018.7
20260503021725 63 148 0.0 0.0 0.00 0.00 0.00 79 1018.7
20260503021221 64 148 0.0 0.0 0.00 0.00 0.00 79 1018.5
20260503020719 64 130 0.0 0.0 0.00 0.00 0.00 78 1018.8
20260503020217 64 151 0.0 0.0 0.00 0.00 0.00 78 1018.8
20260503015713 64 149 0.0 0.0 0.00 0.00 0.00 77 1018.6
20260503015210 65 149 0.0 0.0 0.00 0.00 0.00 77 1018.3
20260503014706 65 154 0.0 0.0 0.00 0.00 0.00 76 1018.3
20260503014204 65 146 0.0 0.0 0.00 0.00 0.00 74 1018.3
20260503013701 66 150 0.0 0.0 0.00 0.00 0.00 73 1018.0
20260503013158 67 152 0.0 0.0 0.00 0.00 0.00 73 1018.2
20260503012655 67 149 0.0 0.0 0.00 0.00 0.00 71 1018.3
20260503012152 67 157 0.0 0.0 0.00 0.00 0.00 69 1018.3
20260503011648 68 151 0.0 0.0 0.00 0.00 0.00 70 1018.3
20260503011146 69 148 0.0 0.0 0.00 0.00 0.00 68 1017.9
20260503010642 69 150 0.0 0.0 0.00 0.00 0.00 66 1018.0
20260503010139 70 150 0.0 0.0 0.00 0.00 0.00 64 1017.9
20260503005636 71 147 0.0 0.0 0.00 0.00 0.00 60 1017.9
20260503005134 71 152 0.0 0.0 0.00 0.00 0.00 58 1017.8
20260503004630 71 149 0.0 0.0 0.00 0.00 0.00 56 1017.8
20260503004129 71 153 0.0 0.0 0.00 0.00 0.00 57 1017.5
20260503003625 71 146 0.0 0.0 0.00 0.00 0.00 56 1017.7
20260503003122 72 95 0.0 0.0 0.00 0.00 0.00 56 1017.5
20260503002619 72 144 0.0 0.0 0.00 0.00 0.00 55 1017.7
20260503002115 72 140 0.0 0.0 0.00 0.00 0.00 56 1017.4
20260503001612 72 85 0.0 0.0 0.00 0.00 0.00 56 1017.6
20260503001109 73 147 0.0 0.0 0.00 0.00 0.00 54 1017.3
20260503000606 73 138 0.0 1.0 0.00 0.00 0.00 53 1017.5
20260503000104 73 193 0.0 1.0 0.00 0.00 0.00 53 1017.3
20260502235600 73 147 0.0 1.0 0.00 0.00 0.00 52 1017.3
20260502235058 73 149 0.0 0.0 0.00 0.00 0.00 52 1017.3
20260502234553 73 153 2.0 3.0 0.00 0.00 0.00 51 1017.3
20260502234052 74 152 0.0 0.0 0.00 0.00 0.00 52 1017.5
20260502233551 73 159 0.0 0.0 0.00 0.00 0.00 53 1017.3
20260502233049 74 40 0.0 1.0 0.00 0.00 0.00 52 1017.4
20260502232545 75 135 1.0 2.0 0.00 0.00 0.00 50 1017.1
20260502232043 74 171 0.0 0.0 0.00 0.00 0.00 50 1017.2
20260502231539 74 80 1.0 1.0 0.00 0.00 0.00 50 1017.2
20260502231037 75 80 0.0 1.0 0.00 0.00 0.00 49 1017.3
20260502230535 75 141 2.0 2.0 0.00 0.00 0.00 48 1017.2
20260502230033 74 151 0.0 0.0 0.00 0.00 0.00 51 1017.3
20260502225528 75 177 0.0 0.0 0.00 0.00 0.00 50 1017.4
20260502225026 74 100 1.0 2.0 0.00 0.00 0.00 51 1017.3
20260502224522 75 169 1.0 1.0 0.00 0.00 0.00 51 1017.3
20260502224019 74 68 1.0 1.0 0.00 0.00 0.00 52 1017.3
20260502223517 75 125 0.0 0.0 0.00 0.00 0.00 50 1017.4
20260502223015 75 251 1.0 1.0 0.00 0.00 0.00 50 1017.2
20260502222512 75 111 0.0 1.0 0.00 0.00 0.00 49 1017.4
20260502222008 76 184 1.0 3.0 0.00 0.00 0.00 51 1017.2
20260502221504 76 235 0.0 1.0 0.00 0.00 0.00 48 1017.5
20260502221002 76 148 0.0 0.0 0.00 0.00 0.00 49 1017.4
20260502220456 77 38 1.0 2.0 0.00 0.00 0.00 48 1017.4
20260502215954 77 162 1.0 2.0 0.00 0.00 0.00 48 1017.4
20260502215451 76 158 0.0 0.0 0.00 0.00 0.00 48 1017.3
20260502214948 76 185 1.0 1.0 0.00 0.00 0.00 48 1017.3
20260502214445 74 121 0.0 0.0 0.00 0.00 0.00 50 1017.4
20260502213942 74 151 1.0 3.0 0.00 0.00 0.00 50 1017.5
20260502213438 77 142 0.0 1.0 0.00 0.00 0.00 48 1017.6
20260502212937 78 172 0.0 0.0 0.00 0.00 0.00 46 1017.5
20260502212436 77 198 0.0 0.0 0.00 0.00 0.00 45 1017.7
20260502211932 77 335 2.0 3.0 0.00 0.00 0.00 48 1017.6
20260502211428 77 161 1.0 1.0 0.00 0.00 0.00 47 1017.7
20260502210926 77 162 0.0 0.0 0.00 0.00 0.00 46 1017.8
20260502210422 76 172 0.0 0.0 0.00 0.00 0.00 46 1017.9
20260502205920 75 146 0.0 1.0 0.00 0.00 0.00 48 1017.7
20260502205415 76 81 1.0 1.0 0.00 0.00 0.00 48 1017.7
20260502204913 76 159 0.0 0.0 0.00 0.00 0.00 48 1017.9
20260502204410 76 263 1.0 1.0 0.00 0.00 0.00 48 1017.8
20260502203908 75 156 1.0 2.0 0.00 0.00 0.00 49 1017.9